| time (UTC) | temp F | wind direction | speed knots | gust knots | rain 1hr in | rain 24hr in | rain mn in | humidity % | barometer mb |
| 20260509135056 | 51 | 0 | 0.0 | 0.9 | 0.00 | 0.05 | 0.00 | 78 | 1008.5 |
| 20260509134555 | 51 | 0 | 0.0 | 1.7 | 0.00 | 0.05 | 0.00 | 78 | 1008.6 |
| 20260509134100 | 50 | 0 | 0.0 | 1.7 | 0.00 | 0.05 | 0.00 | 79 | 1008.5 |
| 20260509133555 | 50 | 0 | 0.0 | 2.6 | 0.00 | 0.05 | 0.00 | 79 | 1008.6 |
| 20260509133105 | 49 | 0 | 0.9 | 2.6 | 0.00 | 0.05 | 0.00 | 80 | 1008.6 |
| 20260509132553 | 49 | 0 | 0.0 | 2.6 | 0.00 | 0.05 | 0.00 | 80 | 1008.6 |
| 20260509132055 | 48 | 72 | 0.0 | 3.5 | 0.00 | 0.05 | 0.00 | 81 | 1008.7 |
| 20260509131556 | 48 | 117 | 0.9 | 3.5 | 0.00 | 0.05 | 0.00 | 81 | 1008.7 |
| 20260509131054 | 48 | 0 | 0.0 | 2.6 | 0.00 | 0.05 | 0.00 | 81 | 1008.9 |
| 20260509130556 | 47 | 121 | 0.0 | 1.7 | 0.00 | 0.05 | 0.00 | 82 | 1008.9 |
| 20260509130058 | 47 | 0 | 0.9 | 1.7 | 0.00 | 0.05 | 0.00 | 82 | 1009.0 |
| 20260509125555 | 46 | 0 | 0.0 | 1.7 | 0.00 | 0.05 | 0.00 | 83 | 1009.0 |
| 20260509125055 | 46 | 143 | 0.0 | 0.0 | 0.00 | 0.05 | 0.00 | 84 | 1008.9 |
| 20260509124644 | 45 | 0 | 0.0 | 0.0 | 0.00 | 0.05 | 0.00 | 85 | 1008.9 |
| 20260509124059 | 45 | 0 | 0.0 | 0.0 | 0.00 | 0.05 | 0.00 | 85 | 1009.0 |
| 20260509123559 | 45 | 0 | 0.0 | 0.0 | 0.00 | 0.05 | 0.00 | 86 | 1009.0 |
| 20260509123103 | 44 | 0 | 0.0 | 0.0 | 0.00 | 0.05 | 0.00 | 87 | 1008.9 |
| 20260509122555 | 44 | 0 | 0.0 | 0.0 | 0.00 | 0.05 | 0.00 | 87 | 1009.0 |
| 20260509122053 | 44 | 0 | 0.0 | 0.0 | 0.00 | 0.05 | 0.00 | 88 | 1009.1 |
| 20260509121602 | 43 | 0 | 0.0 | 0.0 | 0.00 | 0.05 | 0.00 | 89 | 1009.0 |
| 20260509121056 | 43 | 0 | 0.0 | 0.0 | 0.00 | 0.05 | 0.00 | 89 | 1009.1 |
| 20260509120559 | 43 | 0 | 0.0 | 0.0 | 0.00 | 0.05 | 0.00 | 90 | 1009.1 |
| 20260509115558 | 42 | 0 | 0.0 | 0.0 | 0.00 | 0.05 | 0.00 | 90 | 1009.1 |
| 20260509115055 | 42 | 0 | 0.0 | 0.0 | 0.00 | 0.05 | 0.00 | 91 | 1009.0 |
| 20260509114603 | 42 | 0 | 0.0 | 0.0 | 0.00 | 0.05 | 0.00 | 91 | 1009.1 |
| 20260509114054 | 42 | 0 | 0.0 | 0.0 | 0.00 | 0.05 | 0.00 | 91 | 1009.2 |
| 20260509113601 | 41 | 0 | 0.0 | 0.0 | 0.00 | 0.05 | 0.00 | 92 | 1009.2 |
| 20260509113059 | 41 | 0 | 0.0 | 0.0 | 0.00 | 0.05 | 0.00 | 92 | 1009.1 |
| 20260509112553 | 41 | 0 | 0.0 | 0.0 | 0.00 | 0.05 | 0.00 | 92 | 1009.1 |
| 20260509112055 | 40 | 0 | 0.0 | 0.0 | 0.00 | 0.05 | 0.00 | 92 | 1008.9 |
| 20260509111555 | 40 | 0 | 0.0 | 0.0 | 0.00 | 0.05 | 0.00 | 93 | 1008.9 |
| 20260509111059 | 40 | 0 | 0.0 | 0.0 | 0.00 | 0.05 | 0.00 | 93 | 1009.0 |
| 20260509110557 | 39 | 0 | 0.0 | 0.0 | 0.00 | 0.05 | 0.00 | 93 | 1009.0 |
| 20260509110057 | 39 | 0 | 0.0 | 0.0 | 0.00 | 0.05 | 0.00 | 93 | 1009.1 |
| 20260509105558 | 39 | 0 | 0.0 | 0.0 | 0.00 | 0.05 | 0.00 | 93 | 1009.2 |
| 20260509105055 | 38 | 0 | 0.0 | 0.0 | 0.00 | 0.05 | 0.00 | 93 | 1009.2 |
| 20260509104556 | 38 | 0 | 0.0 | 0.0 | 0.00 | 0.05 | 0.00 | 93 | 1009.2 |
| 20260509104056 | 38 | 0 | 0.0 | 0.0 | 0.00 | 0.05 | 0.00 | 93 | 1009.1 |
| 20260509103555 | 38 | 0 | 0.0 | 0.0 | 0.00 | 0.05 | 0.00 | 93 | 1009.1 |
| 20260509103054 | 37 | 0 | 0.0 | 0.0 | 0.00 | 0.05 | 0.00 | 92 | 1009.3 |
| 20260509102556 | 37 | 0 | 0.0 | 0.0 | 0.00 | 0.05 | 0.00 | 92 | 1009.2 |
| 20260509102057 | 37 | 0 | 0.0 | 0.0 | 0.00 | 0.05 | 0.00 | 92 | 1009.3 |
| 20260509101558 | 37 | 0 | 0.0 | 0.0 | 0.00 | 0.05 | 0.00 | 92 | 1009.3 |
| 20260509101053 | 37 | 0 | 0.0 | 0.0 | 0.00 | 0.05 | 0.00 | 92 | 1009.3 |
| 20260509100557 | 37 | 0 | 0.0 | 0.0 | 0.00 | 0.05 | 0.00 | 92 | 1009.1 |
| 20260509100057 | 37 | 0 | 0.0 | 0.0 | 0.00 | 0.05 | 0.00 | 92 | 1009.1 |
| 20260509095556 | 37 | 0 | 0.0 | 0.0 | 0.00 | 0.05 | 0.00 | 92 | 1009.1 |
| 20260509095056 | 36 | 0 | 0.0 | 0.0 | 0.00 | 0.05 | 0.00 | 92 | 1009.1 |
| 20260509094556 | 36 | 0 | 0.0 | 0.0 | 0.00 | 0.05 | 0.00 | 92 | 1009.0 |
| 20260509094056 | 36 | 0 | 0.0 | 0.0 | 0.00 | 0.05 | 0.00 | 92 | 1008.9 |
| 20260509093555 | 36 | 0 | 0.0 | 0.0 | 0.00 | 0.05 | 0.00 | 92 | 1008.9 |
| 20260509093056 | 36 | 0 | 0.0 | 0.0 | 0.00 | 0.05 | 0.00 | 92 | 1009.0 |
| 20260509092555 | 36 | 0 | 0.0 | 0.0 | 0.00 | 0.05 | 0.00 | 92 | 1008.9 |
| 20260509092058 | 36 | 0 | 0.0 | 0.0 | 0.00 | 0.05 | 0.00 | 92 | 1009.0 |
| 20260509091600 | 35 | 0 | 0.0 | 0.0 | 0.00 | 0.05 | 0.00 | 92 | 1009.0 |
| 20260509091056 | 35 | 0 | 0.0 | 0.0 | 0.00 | 0.05 | 0.00 | 92 | 1009.1 |
| 20260509090556 | 35 | 0 | 0.0 | 0.0 | 0.00 | 0.05 | 0.00 | 92 | 1009.1 |
| 20260509090106 | 35 | 0 | 0.0 | 0.0 | 0.00 | 0.05 | 0.00 | 92 | 1009.2 |
| 20260509085556 | 35 | 0 | 0.0 | 0.0 | 0.00 | 0.05 | 0.00 | 92 | 1009.2 |
| 20260509085059 | 35 | 0 | 0.0 | 0.0 | 0.00 | 0.05 | 0.00 | 92 | 1009.3 |
| 20260509084553 | 35 | 0 | 0.0 | 0.0 | 0.00 | 0.05 | 0.00 | 92 | 1009.5 |
| 20260509084055 | 35 | 0 | 0.0 | 0.0 | 0.00 | 0.05 | 0.00 | 91 | 1009.5 |
| 20260509083555 | 35 | 0 | 0.0 | 0.0 | 0.00 | 0.05 | 0.00 | 91 | 1009.6 |
| 20260509083058 | 35 | 0 | 0.0 | 0.0 | 0.00 | 0.05 | 0.00 | 91 | 1009.6 |
| 20260509082553 | 35 | 0 | 0.0 | 0.0 | 0.00 | 0.05 | 0.00 | 91 | 1009.7 |
| 20260509082053 | 35 | 0 | 0.0 | 0.0 | 0.00 | 0.05 | 0.00 | 91 | 1009.7 |
| 20260509081556 | 35 | 0 | 0.0 | 0.0 | 0.00 | 0.05 | 0.00 | 92 | 1009.7 |
| 20260509081056 | 35 | 0 | 0.0 | 0.0 | 0.00 | 0.05 | 0.00 | 92 | 1009.7 |
| 20260509080555 | 35 | 0 | 0.0 | 0.0 | 0.00 | 0.05 | 0.00 | 91 | 1009.7 |
| 20260509080110 | 35 | 0 | 0.0 | 0.0 | 0.00 | 0.05 | 0.00 | 91 | 1009.9 |
| 20260509075556 | 35 | 0 | 0.0 | 0.0 | 0.00 | 0.05 | 0.00 | 91 | 1009.8 |
| 20260509075057 | 35 | 0 | 0.0 | 0.0 | 0.00 | 0.05 | 0.00 | 91 | 1009.8 |
| 20260509074558 | 35 | 0 | 0.0 | 0.0 | 0.00 | 0.05 | 0.00 | 91 | 1009.8 |
| 20260509074056 | 35 | 0 | 0.0 | 0.0 | 0.00 | 0.05 | 0.00 | 91 | 1009.9 |
| 20260509073556 | 35 | 0 | 0.0 | 0.0 | 0.00 | 0.05 | 0.00 | 91 | 1009.9 |
| 20260509073107 | 35 | 0 | 0.0 | 0.0 | 0.00 | 0.05 | 0.00 | 91 | 1009.9 |
| 20260509072556 | 35 | 0 | 0.0 | 0.0 | 0.00 | 0.05 | 0.00 | 91 | 1009.9 |
| 20260509072056 | 35 | 0 | 0.0 | 0.0 | 0.00 | 0.05 | 0.00 | 91 | 1009.8 |
| 20260509071556 | 35 | 0 | 0.0 | 0.0 | 0.00 | 0.05 | 0.00 | 91 | 1009.9 |
| 20260509071054 | 34 | 0 | 0.0 | 0.0 | 0.00 | 0.05 | 0.00 | 91 | 1009.8 |
| 20260509070556 | 35 | 0 | 0.0 | 0.0 | 0.00 | 0.05 | 0.00 | 91 | 1009.9 |
| 20260509070059 | 34 | 0 | 0.0 | 0.0 | 0.00 | 0.05 | 0.00 | 91 | 1009.8 |
| 20260509065554 | 34 | 0 | 0.0 | 0.0 | 0.00 | 0.05 | 0.00 | 90 | 1009.8 |
| 20260509065055 | 35 | 0 | 0.0 | 0.0 | 0.00 | 0.05 | 0.00 | 90 | 1009.9 |
| 20260509064555 | 35 | 0 | 0.0 | 0.0 | 0.00 | 0.05 | 0.00 | 90 | 1009.9 |
| 20260509064053 | 35 | 0 | 0.0 | 0.0 | 0.00 | 0.05 | 0.00 | 90 | 1009.9 |
| 20260509063554 | 35 | 0 | 0.0 | 0.0 | 0.00 | 0.05 | 0.00 | 90 | 1009.9 |
| 20260509063114 | 35 | 0 | 0.0 | 0.0 | 0.00 | 0.05 | 0.00 | 90 | 1010.0 |
| 20260509062555 | 35 | 0 | 0.0 | 0.0 | 0.00 | 0.05 | 0.00 | 90 | 1010.1 |
| 20260509062054 | 35 | 0 | 0.0 | 0.0 | 0.00 | 0.05 | 0.00 | 90 | 1010.0 |
| 20260509061559 | 35 | 0 | 0.0 | 0.0 | 0.00 | 0.05 | 0.00 | 90 | 1010.2 |
| 20260509061056 | 35 | 0 | 0.0 | 0.0 | 0.00 | 0.05 | 0.00 | 90 | 1010.1 |
| 20260509060554 | 36 | 0 | 0.0 | 0.0 | 0.00 | 0.05 | 0.00 | 90 | 1010.2 |
| 20260509060057 | 36 | 0 | 0.0 | 0.0 | 0.00 | 0.05 | 0.00 | 90 | 1010.3 |
| 20260509055554 | 36 | 0 | 0.0 | 0.0 | 0.00 | 0.06 | 0.00 | 90 | 1010.4 |
| 20260509055053 | 35 | 0 | 0.0 | 0.0 | 0.00 | 0.06 | 0.00 | 90 | 1010.6 |
| 20260509054556 | 35 | 0 | 0.0 | 0.0 | 0.00 | 0.06 | 0.00 | 90 | 1010.5 |
| 20260509054053 | 35 | 0 | 0.0 | 0.0 | 0.00 | 0.06 | 0.00 | 89 | 1010.6 |
| 20260509053555 | 35 | 0 | 0.0 | 0.0 | 0.00 | 0.06 | 0.00 | 89 | 1010.6 |
| 20260509053055 | 35 | 0 | 0.0 | 0.0 | 0.00 | 0.06 | 0.00 | 89 | 1010.8 |
| 20260509052557 | 36 | 0 | 0.0 | 0.0 | 0.00 | 0.06 | 0.00 | 89 | 1010.7 |
| 20260509052054 | 36 | 0 | 0.0 | 0.0 | 0.00 | 0.06 | 0.00 | 89 | 1010.8 |
| 20260509051602 | 36 | 0 | 0.0 | 0.0 | 0.00 | 0.06 | 0.00 | 89 | 1010.8 |
| 20260509051056 | 36 | 0 | 0.0 | 0.0 | 0.00 | 0.06 | 0.00 | 89 | 1010.8 |
| 20260509050554 | 36 | 0 | 0.0 | 0.0 | 0.00 | 0.06 | 0.00 | 89 | 1010.7 |
| 20260509050101 | 36 | 0 | 0.0 | 0.0 | 0.00 | 0.06 | 0.00 | 89 | 1010.8 |
| 20260509045555 | 36 | 0 | 0.0 | 0.0 | 0.00 | 0.06 | 0.00 | 89 | 1010.9 |
| 20260509045054 | 36 | 0 | 0.0 | 0.0 | 0.00 | 0.06 | 0.00 | 88 | 1010.9 |
| 20260509044604 | 36 | 0 | 0.0 | 0.0 | 0.00 | 0.06 | 0.00 | 88 | 1011.0 |
| 20260509044055 | 36 | 0 | 0.0 | 0.0 | 0.00 | 0.06 | 0.00 | 88 | 1011.0 |
| 20260509043557 | 36 | 0 | 0.0 | 0.0 | 0.00 | 0.06 | 0.00 | 88 | 1011.1 |
| 20260509043103 | 36 | 0 | 0.0 | 0.0 | 0.00 | 0.06 | 0.00 | 88 | 1011.1 |
| 20260509042556 | 36 | 0 | 0.0 | 0.0 | 0.00 | 0.06 | 0.00 | 88 | 1011.1 |
| 20260509042056 | 37 | 0 | 0.0 | 0.0 | 0.00 | 0.06 | 0.00 | 88 | 1011.2 |
| 20260509041556 | 37 | 0 | 0.0 | 0.0 | 0.00 | 0.06 | 0.00 | 88 | 1011.2 |
| 20260509041057 | 37 | 0 | 0.0 | 0.0 | 0.00 | 0.06 | 0.00 | 87 | 1011.2 |
| 20260509040558 | 37 | 0 | 0.0 | 0.0 | 0.00 | 0.06 | 0.00 | 87 | 1011.2 |
| 20260509040056 | 37 | 0 | 0.0 | 0.0 | 0.00 | 0.06 | 0.00 | 87 | 1011.3 |
| 20260509035555 | 37 | 0 | 0.0 | 0.0 | 0.00 | 0.06 | 0.06 | 87 | 1011.2 |
| 20260509035057 | 37 | 0 | 0.0 | 0.0 | 0.00 | 0.06 | 0.06 | 87 | 1011.2 |
| 20260509034605 | 37 | 0 | 0.0 | 0.0 | 0.00 | 0.06 | 0.06 | 86 | 1011.3 |
| 20260509034056 | 37 | 0 | 0.0 | 0.0 | 0.00 | 0.06 | 0.06 | 86 | 1011.2 |
| 20260509033556 | 37 | 0 | 0.0 | 0.0 | 0.00 | 0.06 | 0.06 | 86 | 1011.2 |
| 20260509033107 | 38 | 0 | 0.0 | 0.0 | 0.00 | 0.06 | 0.06 | 86 | 1011.2 |
| 20260509032556 | 38 | 0 | 0.0 | 0.0 | 0.00 | 0.06 | 0.06 | 86 | 1011.2 |
| 20260509032059 | 38 | 0 | 0.0 | 0.0 | 0.00 | 0.06 | 0.06 | 86 | 1011.2 |
| 20260509031555 | 38 | 0 | 0.0 | 0.0 | 0.00 | 0.06 | 0.06 | 86 | 1011.2 |
| 20260509031053 | 38 | 0 | 0.0 | 0.0 | 0.00 | 0.06 | 0.06 | 85 | 1011.2 |
| 20260509030554 | 38 | 0 | 0.0 | 0.0 | 0.00 | 0.06 | 0.06 | 85 | 1011.2 |
| 20260509030058 | 38 | 0 | 0.0 | 0.0 | 0.00 | 0.06 | 0.06 | 85 | 1011.2 |
| 20260509025556 | 38 | 0 | 0.0 | 0.0 | 0.00 | 0.06 | 0.06 | 85 | 1011.3 |
| 20260509025055 | 38 | 0 | 0.0 | 0.0 | 0.00 | 0.06 | 0.06 | 84 | 1011.3 |
| 20260509024603 | 38 | 0 | 0.0 | 0.0 | 0.00 | 0.06 | 0.06 | 83 | 1011.3 |
| 20260509024053 | 39 | 0 | 0.0 | 0.0 | 0.00 | 0.06 | 0.06 | 83 | 1011.3 |
| 20260509023555 | 39 | 0 | 0.0 | 0.0 | 0.00 | 0.06 | 0.06 | 83 | 1011.3 |
| 20260509023056 | 39 | 0 | 0.0 | 0.0 | 0.00 | 0.06 | 0.06 | 83 | 1011.4 |
| 20260509022555 | 39 | 0 | 0.0 | 0.0 | 0.00 | 0.06 | 0.06 | 82 | 1011.4 |
| 20260509022055 | 39 | 0 | 0.0 | 0.0 | 0.00 | 0.06 | 0.06 | 82 | 1011.4 |
| 20260509021555 | 40 | 0 | 0.0 | 0.0 | 0.00 | 0.06 | 0.06 | 82 | 1011.5 |
| 20260509021055 | 40 | 0 | 0.0 | 0.0 | 0.00 | 0.06 | 0.06 | 82 | 1011.5 |
| 20260509020556 | 40 | 0 | 0.0 | 0.0 | 0.00 | 0.06 | 0.06 | 81 | 1011.5 |
| 20260509020055 | 41 | 0 | 0.0 | 0.0 | 0.00 | 0.06 | 0.06 | 81 | 1011.5 |
| 20260509015555 | 41 | 0 | 0.0 | 0.0 | 0.00 | 0.06 | 0.06 | 80 | 1011.5 |
| 20260509015056 | 41 | 0 | 0.0 | 0.0 | 0.00 | 0.06 | 0.06 | 80 | 1011.4 |
| 20260509014554 | 41 | 0 | 0.0 | 0.0 | 0.00 | 0.06 | 0.06 | 80 | 1011.4 |
| 20260509014054 | 41 | 0 | 0.0 | 0.0 | 0.00 | 0.06 | 0.06 | 79 | 1011.4 |
| 20260509013554 | 42 | 0 | 0.0 | 0.0 | 0.00 | 0.06 | 0.06 | 78 | 1011.3 |
| 20260509013103 | 42 | 0 | 0.0 | 0.0 | 0.00 | 0.06 | 0.06 | 78 | 1011.2 |
| 20260509012553 | 42 | 0 | 0.0 | 0.0 | 0.00 | 0.06 | 0.06 | 77 | 1011.2 |
| 20260509012054 | 43 | 0 | 0.0 | 0.0 | 0.00 | 0.06 | 0.06 | 76 | 1011.2 |
| 20260509011603 | 43 | 0 | 0.0 | 0.0 | 0.00 | 0.06 | 0.06 | 75 | 1011.1 |
| 20260509011054 | 44 | 0 | 0.0 | 0.0 | 0.00 | 0.06 | 0.06 | 75 | 1011.1 |
| 20260509010555 | 44 | 0 | 0.0 | 0.0 | 0.00 | 0.06 | 0.06 | 74 | 1011.0 |
| 20260509010057 | 44 | 0 | 0.0 | 0.0 | 0.00 | 0.06 | 0.06 | 74 | 1010.8 |
| 20260509005554 | 44 | 0 | 0.0 | 0.0 | 0.00 | 0.06 | 0.06 | 72 | 1010.8 |
| 20260509005058 | 45 | 0 | 0.0 | 0.0 | 0.00 | 0.06 | 0.06 | 70 | 1010.8 |
| 20260509004600 | 46 | 0 | 0.0 | 0.0 | 0.00 | 0.06 | 0.06 | 70 | 1010.7 |
| 20260509004058 | 46 | 0 | 0.0 | 0.0 | 0.00 | 0.06 | 0.06 | 69 | 1010.6 |
| 20260509003554 | 47 | 0 | 0.0 | 0.0 | 0.00 | 0.06 | 0.06 | 67 | 1010.6 |
| 20260509003055 | 48 | 0 | 0.0 | 0.0 | 0.00 | 0.06 | 0.06 | 66 | 1010.5 |
| 20260509002556 | 49 | 0 | 0.0 | 0.0 | 0.00 | 0.06 | 0.06 | 65 | 1010.5 |
| 20260509002056 | 49 | 0 | 0.0 | 0.0 | 0.00 | 0.06 | 0.06 | 64 | 1010.4 |
| 20260509001556 | 50 | 0 | 0.0 | 0.0 | 0.00 | 0.06 | 0.06 | 62 | 1010.5 |
| 20260509001053 | 51 | 0 | 0.0 | 0.0 | 0.00 | 0.06 | 0.06 | 61 | 1010.4 |
| 20260509000556 | 52 | 0 | 0.0 | 0.0 | 0.00 | 0.06 | 0.06 | 60 | 1010.3 |
| 20260509000057 | 53 | 0 | 0.0 | 0.0 | 0.00 | 0.06 | 0.06 | 57 | 1010.3 |
| 20260508235554 | 54 | 0 | 0.0 | 0.0 | 0.00 | 0.06 | 0.06 | 51 | 1010.3 |
| 20260508235054 | 55 | 0 | 0.0 | 0.0 | 0.00 | 0.06 | 0.06 | 48 | 1010.2 |
| 20260508234556 | 56 | 0 | 0.0 | 0.0 | 0.00 | 0.06 | 0.06 | 46 | 1010.1 |
| 20260508234057 | 57 | 0 | 0.0 | 0.0 | 0.00 | 0.06 | 0.06 | 45 | 1010.2 |
| 20260508233554 | 58 | 0 | 0.0 | 0.0 | 0.00 | 0.06 | 0.06 | 44 | 1010.2 |
| 20260508233054 | 59 | 0 | 0.0 | 0.0 | 0.00 | 0.06 | 0.06 | 44 | 1010.2 |
| 20260508232554 | 59 | 0 | 0.0 | 0.0 | 0.00 | 0.06 | 0.06 | 48 | 1010.2 |
| 20260508232053 | 59 | 0 | 0.0 | 0.0 | 0.00 | 0.06 | 0.06 | 47 | 1010.3 |
| 20260508231558 | 58 | 0 | 0.0 | 1.7 | 0.00 | 0.06 | 0.06 | 44 | 1010.2 |
| 20260508231054 | 58 | 0 | 0.0 | 1.7 | 0.00 | 0.06 | 0.06 | 41 | 1010.2 |
| 20260508230555 | 59 | 274 | 0.0 | 0.0 | 0.00 | 0.06 | 0.06 | 40 | 1010.1 |
| 20260508230055 | 58 | 0 | 0.0 | 0.0 | 0.00 | 0.06 | 0.06 | 43 | 1010.2 |
| 20260508225555 | 58 | 0 | 0.0 | 1.7 | 0.00 | 0.06 | 0.06 | 41 | 1010.1 |
| 20260508225055 | 58 | 0 | 0.0 | 1.7 | 0.00 | 0.06 | 0.06 | 42 | 1010.2 |
| 20260508224612 | 58 | 241 | 0.0 | 1.7 | 0.00 | 0.06 | 0.06 | 42 | 1010.2 |
| 20260508224054 | 58 | 0 | 0.0 | 2.6 | 0.00 | 0.06 | 0.06 | 46 | 1010.2 |
| 20260508223554 | 57 | 0 | 0.0 | 2.6 | 0.00 | 0.06 | 0.06 | 44 | 1010.1 |
| 20260508223055 | 57 | 0 | 0.9 | 2.6 | 0.00 | 0.06 | 0.06 | 44 | 1010.3 |
| 20260508222552 | 57 | 244 | 1.7 | 2.6 | 0.00 | 0.06 | 0.06 | 42 | 1010.3 |
| 20260508222057 | 57 | 0 | 0.0 | 2.6 | 0.00 | 0.06 | 0.06 | 43 | 1010.3 |
| 20260508221607 | 57 | 0 | 0.0 | 3.5 | 0.00 | 0.06 | 0.06 | 42 | 1010.4 |
| 20260508221056 | 57 | 0 | 1.7 | 5.2 | 0.00 | 0.06 | 0.06 | 42 | 1010.5 |
| 20260508220558 | 57 | 271 | 1.7 | 5.2 | 0.00 | 0.06 | 0.06 | 45 | 1010.4 |
| 20260508220055 | 57 | 243 | 0.9 | 2.6 | 0.00 | 0.06 | 0.06 | 44 | 1010.5 |
| 20260508215600 | 57 | 0 | 0.9 | 3.5 | 0.00 | 0.06 | 0.06 | 41 | 1010.6 |
| 20260508215053 | 56 | 246 | 0.0 | 5.2 | 0.00 | 0.06 | 0.06 | 43 | 1010.5 |
| 20260508214557 | 56 | 219 | 0.9 | 5.2 | 0.00 | 0.06 | 0.06 | 44 | 1010.6 |
| 20260508214058 | 56 | 240 | 2.6 | 7.0 | 0.00 | 0.06 | 0.06 | 44 | 1010.5 |
| 20260508213558 | 56 | 291 | 1.7 | 7.0 | 0.00 | 0.06 | 0.06 | 45 | 1010.5 |
| 20260508213055 | 57 | 297 | 0.9 | 7.8 | 0.00 | 0.06 | 0.06 | 44 | 1010.5 |
| 20260508212557 | 57 | 0 | 0.9 | 7.8 | 0.00 | 0.06 | 0.06 | 43 | 1010.5 |
| 20260508212056 | 57 | 326 | 1.7 | 7.8 | 0.00 | 0.06 | 0.06 | 43 | 1010.7 |
| 20260508211556 | 57 | 212 | 0.0 | 4.3 | 0.00 | 0.06 | 0.06 | 44 | 1010.6 |
| 20260508211057 | 57 | 0 | 2.6 | 4.3 | 0.00 | 0.06 | 0.06 | 44 | 1010.5 |
| 20260508210555 | 57 | 347 | 0.9 | 6.1 | 0.00 | 0.06 | 0.06 | 45 | 1010.5 |
| 20260508210057 | 56 | 347 | 2.6 | 6.1 | 0.00 | 0.06 | 0.06 | 42 | 1010.6 |
| 20260508205553 | 57 | 297 | 2.6 | 5.2 | 0.00 | 0.06 | 0.06 | 45 | 1010.7 |
| 20260508205054 | 56 | 314 | 0.0 | 5.2 | 0.00 | 0.06 | 0.06 | 43 | 1010.7 |
| 20260508204554 | 56 | 288 | 2.6 | 7.8 | 0.00 | 0.06 | 0.06 | 49 | 1010.7 |
| 20260508204056 | 56 | 228 | 2.6 | 10.4 | 0.00 | 0.06 | 0.06 | 47 | 1010.7 |
| 20260508203556 | 56 | 295 | 5.2 | 10.4 | 0.00 | 0.06 | 0.06 | 49 | 1010.8 |
| 20260508203101 | 56 | 243 | 2.6 | 5.2 | 0.00 | 0.06 | 0.06 | 53 | 1010.7 |
| 20260508202556 | 56 | 299 | 0.0 | 3.5 | 0.00 | 0.06 | 0.06 | 47 | 1010.7 |
| 20260508202056 | 56 | 0 | 0.9 | 3.5 | 0.00 | 0.06 | 0.06 | 48 | 1010.7 |
| 20260508201600 | 56 | 314 | 0.0 | 3.5 | 0.00 | 0.06 | 0.06 | 53 | 1010.8 |
| 20260508201056 | 55 | 0 | 0.0 | 7.0 | 0.00 | 0.06 | 0.06 | 50 | 1010.8 |
| 20260508200559 | 55 | 248 | 3.5 | 7.0 | 0.00 | 0.06 | 0.06 | 52 | 1010.8 |
| 20260508200108 | 54 | 206 | 1.7 | 5.2 | 0.00 | 0.06 | 0.06 | 52 | 1010.9 |
| 20260508195553 | 54 | 283 | 0.9 | 3.5 | 0.00 | 0.06 | 0.06 | 55 | 1011.1 |
| 20260508195055 | 53 | 300 | 1.7 | 7.0 | 0.00 | 0.06 | 0.06 | 55 | 1011.1 |
| 20260508194556 | 54 | 293 | 2.6 | 8.7 | 0.00 | 0.06 | 0.06 | 54 | 1011.2 |
| 20260508194056 | 54 | 275 | 4.3 | 8.7 | 0.00 | 0.06 | 0.06 | 55 | 1011.2 |
| 20260508193555 | 54 | 250 | 5.2 | 8.7 | 0.00 | 0.06 | 0.06 | 53 | 1011.2 |
| 20260508193103 | 54 | 195 | 4.3 | 9.6 | 0.00 | 0.06 | 0.06 | 56 | 1011.2 |
| 20260508192555 | 53 | 246 | 5.2 | 9.6 | 0.00 | 0.06 | 0.06 | 56 | 1011.1 |
| 20260508192053 | 53 | 307 | 1.7 | 7.8 | 0.00 | 0.06 | 0.06 | 60 | 1011.1 |
| 20260508191555 | 53 | 192 | 3.5 | 7.8 | 0.00 | 0.06 | 0.06 | 59 | 1011.2 |
| 20260508191056 | 53 | 144 | 2.6 | 7.0 | 0.00 | 0.06 | 0.06 | 65 | 1011.2 |
| 20260508190556 | 52 | 240 | 1.7 | 5.2 | 0.00 | 0.06 | 0.06 | 61 | 1011.3 |
| 20260508190057 | 52 | 101 | 1.7 | 8.7 | 0.00 | 0.06 | 0.06 | 63 | 1011.3 |
| 20260508185559 | 52 | 138 | 2.6 | 8.7 | 0.00 | 0.06 | 0.06 | 64 | 1011.3 |
| 20260508185054 | 53 | 231 | 1.7 | 7.0 | 0.00 | 0.06 | 0.06 | 62 | 1011.4 |
| 20260508184557 | 53 | 157 | 2.6 | 6.1 | 0.00 | 0.06 | 0.06 | 66 | 1011.4 |
| 20260508184100 | 53 | 223 | 2.6 | 7.0 | 0.00 | 0.06 | 0.06 | 63 | 1011.5 |
| 20260508183555 | 52 | 266 | 3.5 | 7.0 | 0.00 | 0.06 | 0.06 | 64 | 1011.4 |
| 20260508183121 | 52 | 131 | 2.6 | 6.1 | 0.00 | 0.06 | 0.06 | 65 | 1011.5 |
| 20260508182553 | 52 | 0 | 1.7 | 6.1 | 0.00 | 0.06 | 0.06 | 66 | 1011.6 |
| 20260508182057 | 51 | 239 | 1.7 | 7.0 | 0.00 | 0.06 | 0.06 | 66 | 1011.7 |
| 20260508181611 | 51 | 263 | 4.3 | 9.6 | 0.00 | 0.06 | 0.06 | 67 | 1011.7 |
| 20260508181054 | 51 | 239 | 4.3 | 9.6 | 0.02 | 0.06 | 0.06 | 69 | 1011.9 |
| 20260508180556 | 50 | 152 | 3.5 | 7.0 | 0.02 | 0.06 | 0.06 | 72 | 1011.9 |
| 20260508180055 | 50 | 224 | 1.7 | 6.1 | 0.02 | 0.06 | 0.06 | 72 | 1012.0 |
| 20260508175602 | 50 | 275 | 1.7 | 6.1 | 0.02 | 0.06 | 0.06 | 74 | 1011.8 |
| 20260508175059 | 49 | 259 | 1.7 | 5.2 | 0.02 | 0.06 | 0.06 | 72 | 1011.8 |
| 20260508174556 | 48 | 248 | 0.0 | 7.0 | 0.02 | 0.06 | 0.06 | 74 | 1011.9 |
| 20260508174100 | 48 | 226 | 1.7 | 7.0 | 0.02 | 0.06 | 0.06 | 72 | 1012.0 |
| 20260508173603 | 48 | 239 | 3.5 | 7.0 | 0.02 | 0.06 | 0.06 | 72 | 1012.1 |
| 20260508173104 | 47 | 233 | 0.9 | 4.3 | 0.02 | 0.06 | 0.06 | 79 | 1012.1 |
| 20260508172554 | 47 | 224 | 1.7 | 5.2 | 0.02 | 0.06 | 0.06 | 76 | 1012.2 |
| 20260508172054 | 47 | 222 | 0.9 | 6.1 | 0.02 | 0.06 | 0.06 | 78 | 1012.3 |
| 20260508171558 | 46 | 256 | 2.6 | 6.1 | 0.02 | 0.06 | 0.06 | 75 | 1012.4 |
| 20260508171054 | 47 | 229 | 3.5 | 6.1 | 0.00 | 0.04 | 0.04 | 72 | 1012.3 |
| 20260508170557 | 47 | 235 | 1.7 | 6.1 | 0.00 | 0.04 | 0.04 | 72 | 1012.3 |
| 20260508170100 | 48 | 288 | 3.5 | 6.1 | 0.00 | 0.04 | 0.04 | 71 | 1012.3 |
| 20260508165556 | 48 | 214 | 2.6 | 5.2 | 0.00 | 0.04 | 0.04 | 71 | 1012.3 |
| 20260508165056 | 48 | 0 | 1.7 | 5.2 | 0.00 | 0.04 | 0.04 | 69 | 1012.2 |
| 20260508164556 | 48 | 267 | 2.6 | 5.2 | 0.00 | 0.04 | 0.04 | 70 | 1012.3 |
| 20260508164056 | 48 | 102 | 1.7 | 6.1 | 0.00 | 0.04 | 0.04 | 70 | 1012.3 |
| 20260508163557 | 49 | 271 | 2.6 | 6.1 | 0.00 | 0.04 | 0.04 | 69 | 1012.3 |
| 20260508163055 | 49 | 245 | 2.6 | 5.2 | 0.00 | 0.04 | 0.04 | 70 | 1012.3 |
| 20260508162556 | 49 | 224 | 3.5 | 6.1 | 0.00 | 0.04 | 0.04 | 70 | 1012.3 |
| 20260508162055 | 49 | 251 | 1.7 | 6.1 | 0.00 | 0.04 | 0.04 | 73 | 1012.2 |
| 20260508161556 | 49 | 224 | 1.7 | 4.3 | 0.00 | 0.04 | 0.04 | 72 | 1012.2 |
| 20260508161057 | 49 | 231 | 1.7 | 4.3 | 0.00 | 0.04 | 0.04 | 71 | 1012.3 |
| 20260508160601 | 48 | 281 | 0.9 | 4.3 | 0.00 | 0.04 | 0.04 | 72 | 1012.3 |
| 20260508155555 | 47 | 293 | 2.6 | 8.7 | 0.00 | 0.04 | 0.04 | 73 | 1012.3 |
| 20260508155054 | 47 | 311 | 2.6 | 8.7 | 0.00 | 0.04 | 0.04 | 77 | 1012.4 |
| 20260508154601 | 47 | 226 | 2.6 | 6.1 | 0.01 | 0.04 | 0.04 | 76 | 1012.3 |
| 20260508154057 | 47 | 217 | 2.6 | 6.1 | 0.02 | 0.04 | 0.04 | 78 | 1012.3 |
| 20260508153555 | 46 | 231 | 2.6 | 7.0 | 0.02 | 0.04 | 0.04 | 79 | 1012.3 |
| 20260508153057 | 46 | 205 | 2.6 | 7.0 | 0.02 | 0.04 | 0.04 | 81 | 1012.3 |
| 20260508152555 | 46 | 256 | 3.5 | 7.8 | 0.02 | 0.04 | 0.04 | 80 | 1012.3 |
| 20260508152056 | 45 | 249 | 2.6 | 7.8 | 0.02 | 0.04 | 0.04 | 84 | 1012.3 |
| 20260508151558 | 45 | 285 | 3.5 | 7.8 | 0.02 | 0.04 | 0.04 | 84 | 1012.3 |
| 20260508151054 | 44 | 248 | 2.6 | 5.2 | 0.02 | 0.04 | 0.04 | 88 | 1012.4 |
| 20260508150554 | 43 | 276 | 2.6 | 5.2 | 0.02 | 0.04 | 0.04 | 89 | 1012.3 |
| 20260508150122 | 43 | 303 | 2.6 | 5.2 | 0.02 | 0.04 | 0.04 | 90 | 1012.4 |
| 20260508145555 | 42 | 273 | 2.6 | 5.2 | 0.02 | 0.04 | 0.04 | 88 | 1012.5 |
| 20260508145054 | 42 | 283 | 2.6 | 7.0 | 0.02 | 0.04 | 0.04 | 88 | 1012.5 |
| 20260508144604 | 42 | 261 | 4.3 | 7.0 | 0.01 | 0.03 | 0.03 | 87 | 1012.4 |
| 20260508144054 | 43 | 277 | 4.3 | 7.0 | 0.00 | 0.02 | 0.02 | 86 | 1012.5 |
| 20260508143559 | 43 | 266 | 2.6 | 8.7 | 0.00 | 0.02 | 0.02 | 84 | 1012.4 |
| 20260508143055 | 43 | 266 | 5.2 | 8.7 | 0.00 | 0.02 | 0.02 | 83 | 1012.4 |
| 20260508142554 | 44 | 271 | 2.6 | 5.2 | 0.00 | 0.02 | 0.02 | 84 | 1012.4 |
| 20260508142057 | 44 | 220 | 2.6 | 5.2 | 0.00 | 0.02 | 0.02 | 84 | 1012.4 |
| 20260508141603 | 44 | 295 | 2.6 | 5.2 | 0.00 | 0.02 | 0.02 | 84 | 1012.4 |
| 20260508141053 | 44 | 270 | 2.6 | 5.2 | 0.01 | 0.02 | 0.02 | 85 | 1012.4 |
| 20260508140553 | 44 | 215 | 2.6 | 4.3 | 0.01 | 0.02 | 0.02 | 86 | 1012.2 |
| 20260508140100 | 44 | 252 | 1.7 | 4.3 | 0.01 | 0.02 | 0.02 | 87 | 1012.2 |
| 20260508135555 | 44 | 293 | 2.6 | 4.3 | 0.01 | 0.02 | 0.02 | 87 | 1012.3 |